Regional Weather Roundup
Issued by NWS Cleveland, OH

Home | Current Version | Previous Version | Graphics & Text | Print | Product List | Glossary On
Versions: 1 2 3 4 5 6 7 8 9 10 11 12 13 14 15 16 17 18 19 20 21 22 23 24 25 26 27 28 29 30 31 32 33 34 35 36 37 38 39 40 41 42 43 44 45 46 47 48 49 50
000
ASUS41 KCLE 250310
RWRCLE
OHIO REGIONAL WEATHER ROUNDUP
NATIONAL WEATHER SERVICE WILMINGTON, OH
1100 PM EDT TUE MAY 24 2016

NOTE: "FAIR" INDICATES FEW OR NO CLOUDS BELOW 12,000 FEET WITH NO
SIGNIFICANT WEATHER AND/OR OBSTRUCTIONS TO VISIBILITY.

OHZ001>008-015>018-024>027-034-035-043-044-250400-
   NORTHWEST OHIO

CITY           SKY/WX    TMP DP  RH WIND       PRES   REMARKS
DEFIANCE       FAIR      69  45  41 CALM      30.04R
FINDLAY        FAIR      65  45  48 S5        30.05R
TOLEDO EXPRESS FAIR      65  47  52 S6        30.03R
TOLEDO EXEC    FAIR      69  44  40 SW7       30.05R
LIMA           FAIR      66  47  50 S8        30.07R
$$

OHZ009>014-019>023-028>033-038-089-250400-
   NORTHEAST OHIO

CITY           SKY/WX    TMP DP  RH WIND       PRES   REMARKS
CLE-HOPKINS    FAIR      65  48  54 S6        30.08R
CLE-LAKEFRONT  FAIR      72  45  37 S9        30.04R
CUY CO. ARPT   CLEAR     68  45  42 S7        30.07R
LORAIN-ELYRIA  FAIR      64  44  48 S3        30.06R
ASHTABULA      FAIR      57  44  62 CALM      30.07R
AKRON-CANTON   FAIR      66  47  50 S5        30.10R
WOOSTER        FAIR      59  51  75 CALM      30.10R
MANSFIELD      FAIR      62  48  60 S6        30.09R
YOUNGSTOWN     MOCLDY    56  49  77 S3        30.09R
$$

OHZ042-051>053-060>062-070>072-077>081-250400-
  SOUTHWEST OHIO

CITY           SKY/WX    TMP DP  RH WIND       PRES   REMARKS
CINC-COVINGTON FAIR      67  50  54 S5        30.10R
CINC-LUNKEN    FAIR      61  55  81 CALM      30.10R
HAMILTON       FAIR      59  54  83 CALM      30.10R
DAYTON         FAIR      68  46  45 S6        30.10R
WRIGHT-PAT AFB FAIR      67  48  49 CALM      30.08S
DAYTON GENERAL FAIR      66  45  46 S6        30.09R
WILMINGTON     FAIR      63  49  60 S3        30.10S
$$

OHZ036-037-039>041-045>050-054>059-063>069-073>076-082>088-250400-
  CENTRAL AND SOUTHEAST OHIO

CITY           SKY/WX    TMP DP  RH WIND       PRES   REMARKS
COLUMBUS       FAIR      69  50  50 S3        30.09R
OSU AIRPORT    FAIR      68  48  48 S5        30.09R
BOLTON FIELD   FAIR      63  51  65 S3        30.10S
RICKENBACK AFB FAIR      64  51  62 CALM      30.09S
NEWARK         FAIR      61  53  75 CALM      30.10R
MARION         FAIR      66  46  48 SW8       30.08S
LANCASTER      FAIR      59  54  83 CALM      30.11R
ZANESVILLE     FAIR      62  54  74 CALM      30.11R
NEW PHILLY     FAIR      63  54  72 CALM      30.11R
$$



USA.gov is the U.S. government's official web portal to all federal, state and local government web resources and services.